Minot, ND

4:47 PM CDT on July 24, 2017 (GMT -0500)
Minot International

Weather History for KMOT - August, 2013

Change the Weather History Date:

Sunday, August 4, 2013

  Actual Average Record
Temperature  
Mean Temperature 64 °F 71 °F  
Max Temperature 70 °F 83 °F 102 °F (2001)
Min Temperature 57 °F 58 °F 33 °F (1923)
Degree Days  
Heating Degree Days 2    
Cooling Degree Days 0 6  
Month to date cooling degree days 1 24  
Year to date cooling degree days 198 282  
Since 1 June cooling degree days 188 266  
Growing Degree Days 14 (Base 50)    
Moisture  
Dew Point 56 °F    
Average Humidity 78    
Maximum Humidity 93    
Minimum Humidity 63    
Precipitation  
Precipitation T in 0.07 in 1.53 in (1911)
Month to date precipitation T 0.28  
Year to date precipitation 17.41 11.68  
Sea Level Pressure  
Sea Level Pressure 30.03 in    
Wind  
Wind Speed 8 mph (SSE)    
Max Wind Speed 20 mph    
Max Gust Speed 24 mph    
Visibility 10 miles    
Events      
T = Trace of Precipitation, MM = Missing Value Source: NWS Daily Summary

Daily Weather History Graph

Daily Weather History Graph

Search for Another Location

Airport or City:

Trip Planner

Search our weather history database for the weather conditions in past years. The results will help you decide how hot, cold, wet, or windy it might be!

Date:

Astronomy

Aug. 04, 2013 Rise Set
Actual Time 6:24 AM CDT 9:16 PM CDT
Civil Twilight 5:48 AM CDT 9:52 PM CDT
Nautical Twilight 5:02 AM CDT 10:38 PM CDT
Astronomical Twilight 4:06 AM CDT 11:34 PM CDT
Moon 4:25 AM CDT (8/4) 7:40 PM CDT (8/4)
Length of Visible Light 16h 04m
Length of Day
14h 51m
Waning Crescent, 4% of the Moon is Illuminated
Aug 4
Waning Crescent
Aug 6
New
Aug 14
First Quarter
Aug 20
Full
Aug 28
Last Quarter

Hourly Weather History & Observations

Time (CDT) Temp. Dew Point Humidity Pressure Visibility Wind Dir Wind Speed Gust Speed Precip Events Conditions
12:54 AM 62.1 °F 50.0 °F 65% 30.17 in 10.0 mi ESE 9.2 mph - N/A   Overcast
1:54 AM 59.0 °F 51.1 °F 75% 30.13 in 10.0 mi East 8.1 mph - N/A   Clear
2:54 AM 57.9 °F 51.1 °F 78% 30.11 in 10.0 mi ESE 8.1 mph - N/A   Clear
3:54 AM 57.9 °F 51.1 °F 78% 30.09 in 10.0 mi East 8.1 mph - N/A   Partly Cloudy
4:54 AM 59.0 °F 50.0 °F 72% 30.09 in 10.0 mi ESE 10.4 mph - N/A   Overcast
5:54 AM 59.0 °F 50.0 °F 72% 30.09 in 10.0 mi East 6.9 mph - N/A   Overcast
6:54 AM 57.9 °F 50.0 °F 75% 30.08 in 10.0 mi ESE 5.8 mph - N/A   Overcast
7:42 AM 60.8 °F 48.2 °F 63% 30.09 in 10.0 mi SE 6.9 mph - N/A   Overcast
7:54 AM 61.0 °F 50.0 °F 67% 30.09 in 10.0 mi SE 8.1 mph - N/A   Overcast
8:38 AM 62.6 °F 51.8 °F 68% 30.08 in 10.0 mi SE 8.1 mph - N/A   Mostly Cloudy
8:54 AM 63.0 °F 52.0 °F 67% 30.07 in 10.0 mi SE 10.4 mph - N/A   Mostly Cloudy
9:16 AM 64.4 °F 53.6 °F 68% 30.07 in 10.0 mi SE 10.4 mph - N/A   Partly Cloudy
9:54 AM 68.0 °F 55.0 °F 63% 30.06 in 10.0 mi SSE 13.8 mph 21.9 mph N/A   Partly Cloudy
10:25 AM 68.0 °F 55.4 °F 64% 30.07 in 10.0 mi SSE 16.1 mph 23.0 mph N/A   Mostly Cloudy
10:54 AM 66.0 °F 55.0 °F 68% 30.06 in 10.0 mi South 16.1 mph 23.0 mph N/A   Overcast
11:54 AM 64.9 °F 55.9 °F 73% 30.05 in 10.0 mi South 12.7 mph - N/A   Overcast
12:54 PM 64.9 °F 57.9 °F 78% 30.03 in 10.0 mi South 11.5 mph - N/A   Overcast
1:41 PM 64.4 °F 59.0 °F 83% 30.02 in 7.0 mi South 9.2 mph - N/A   Overcast
1:54 PM 66.0 °F 57.9 °F 75% 30.01 in 10.0 mi South 10.4 mph - N/A   Overcast
2:10 PM 66.2 °F 59.0 °F 78% 30.01 in 10.0 mi South 11.5 mph - N/A   Overcast
2:54 PM 66.0 °F 59.0 °F 78% 30.01 in 10.0 mi SSW 8.1 mph - 0.00 in   Overcast
3:54 PM 68.0 °F 59.0 °F 73% 29.99 in 10.0 mi SW 6.9 mph - N/A   Overcast
4:54 PM 68.0 °F 59.0 °F 73% 29.98 in 10.0 mi WSW 3.5 mph - N/A   Overcast
5:37 PM 69.8 °F 59.0 °F 68% 29.96 in 10.0 mi West 4.6 mph - N/A   Overcast
5:54 PM 69.1 °F 59.0 °F 70% 29.96 in 10.0 mi WSW 4.6 mph - N/A   Overcast
6:54 PM 69.1 °F 57.9 °F 68% 29.97 in 10.0 mi WSW 6.9 mph - N/A   Overcast
7:54 PM 70.0 °F 59.0 °F 68% 29.91 in 10.0 mi NNW 9.2 mph - N/A   Partly Cloudy
8:54 PM 66.0 °F 59.0 °F 78% 29.94 in 10.0 mi Calm Calm - N/A   Clear
9:27 PM 62.6 °F 57.2 °F 82% 29.96 in 10.0 mi Calm Calm - N/A   Mostly Cloudy
9:54 PM 63.0 °F 57.9 °F 84% 29.96 in 10.0 mi NNW 8.1 mph - N/A   Mostly Cloudy
10:03 PM 62.6 °F 59.0 °F 88% 29.96 in 10.0 mi NNW 5.8 mph - N/A   Mostly Cloudy
10:54 PM 62.1 °F 60.1 °F 93% 29.97 in 10.0 mi North 9.2 mph - N/A   Mostly Cloudy
11:13 PM 60.8 °F 59.0 °F 94% 29.97 in 10.0 mi NNW 9.2 mph - N/A   Mostly Cloudy
11:24 PM 60.8 °F 59.0 °F 94% 29.97 in 10.0 mi NNW 9.2 mph - N/A   Mostly Cloudy
11:35 PM 60.8 °F 57.2 °F 88% 29.97 in 10.0 mi NNW 10.4 mph - N/A   Overcast
11:54 PM 61.0 °F 57.9 °F 90% 29.97 in 10.0 mi North 9.2 mph - N/A   Overcast